Regional Weather Roundup
Issued by NWS Green Bay, WI

Home | Current Version | Previous Version | Graphics & Text | Print | Product List | Glossary Off
Versions: 1 2 3 4 5 6 7 8 9 10 11 12 13 14 15 16 17 18 19 20 21 22 23 24 25 26 27 28 29 30 31 32 33 34 35 36 37 38 39 40 41 42 43 44 45 46 47 48 49 50

000
ASUS43 KGRB 292210
RWRGRB

NORTH-CENTRAL AND NORTHEAST WISCONSIN REGIONAL WEATHER ROUNDUP
NATIONAL WEATHER SERVICE GREEN BAY WI
500 PM CDT TUE JUL 29 2014

WIZ005-009-010>012-018-019-292300-
NORTH CENTRAL WISCONSIN

CITY           SKY/WX    TMP DP  RH WIND       PRES   REMARKS
IRONWOOD       NOT AVBL
MANITOWISH WTR PTSUNNY   67  53  59 NW12      30.03R
ARBOR VITAE    MOSUNNY   72  56  57 W12       30.02R
EAGLE RIVER    PTSUNNY   65  58  76 CALM      30.00S
LAND O LAKES   MOSUNNY   69  53  56 N6        30.01S
RHINELANDER    TSTM      61  56  83 W13       30.03R
PHILLIPS       CLOUDY    59  55  87 N13G22    30.04R
ANTIGO         CLOUDY    61  57  87 NW5       30.01R
TOMAHAWK       LGT RAIN  60  57  89 W7        30.04R
MERRILL        CLOUDY    62  58  87 NW5       30.03R THUNDER
$$

WIZ013-073-292300-
NORTHEAST WISCONSIN

CITY           SKY/WX    TMP DP  RH WIND       PRES   REMARKS
IRON MOUNTAIN  MOSUNNY   73  51  46 NW14      29.95S
MARINETTE      PTSUNNY   70  55  60 SE8       29.94S
OCONTO         CLOUDY    62  61  97 SW3       29.95F
$$

WIZ017-030-035>037-045-292300-
CENTRAL WISCONSIN

CITY           SKY/WX    TMP DP  RH WIND       PRES   REMARKS
MEDFORD        CLOUDY    64  57  79 NW7       30.04S
WAUSAU         LGT RAIN  66  60  81 N10       30.01R
MOSINEE        NOT AVBL
MARSHFIELD     TSTM      61  55  81 NE5G17    30.04R
WISC RAPIDS    PTSUNNY   75  54  47 NW9       30.01S
STEVENS POINT  MOSUNNY   73  54  51 W8        30.00R
WAUPACA        MOSUNNY   79  51  37 NW8       29.97S
SHAWANO        TSTM      63  58  85 E7        29.99R
CLINTONVILLE   PTSUNNY   77  50  38 NE20G29   29.98R
$$

WIZ038-039-048-051-292300-
FOX VALLEY

CITY           SKY/WX    TMP DP  RH WIND       PRES   REMARKS
NWS GREEN BAY  LGT RAIN  62  60  93 NE6       29.98R FOG
APPLETON       PTSUNNY   77  50  38 W13       29.96F
OSHKOSH        MOSUNNY   78  55  44 W13G20    29.96F
FOND DU LAC    SUNNY     78  53  41 W12       29.97F
$$

WIZ022-050-052-292300-
EAST CENTRAL WISCONSIN

CITY           SKY/WX    TMP DP  RH WIND       PRES   REMARKS
STURGEON BAY   PTSUNNY   70  55  60 CALM      29.96F
MANITOWOC      LGT RAIN  63  59  87 MISG      29.98S
SHEBOYGAN      MOSUNNY   76  54  46 NW12      29.97F
$$

LMZ563-521-522-541>543-292300-
LAKESHORE

STATION/POSITION TIME  TEMP    WIND        PRES    VSBY  WAVE
                       AIR SEA DIR/SP/G                  HT/PER
                 (UTC) (F)     (DEG/KT/KT) (MB)    (MI)  (FT/S)
SHEBOYGAN LKSHOR 2200   67      40/ 11/ 13 1015.6R
KEWAUNEE LKSHORE 2200   57     190/  6/  7 1015.7F
ALGOMA MARINA    2100          200/  9/ 10   N/A
NORTHPORT PIER   2200   65     130/  4/  6 1014.2S
N MID LAKE BUOY  2200   59 58  200/  4/  4 1013.9F         0
S GREEN BAY BUOY 2100   66 67  300/ 14     1016.0R
SISTER BAY LKSHO 2100   72        CALM       N/A
STURGEON BAY CG  2100   59 64  200/  4     1014.4      6   1
CHAMBERS ISLAND  2200   70      90/  3/  6 1014.2F
MENOMINEE LKSHOR 2200   67     150/  8/  9 1014.7F
$$


USA.gov is the U.S. government's official web portal to all federal, state and local government web resources and services.